| time (UTC) | temp C | wind direction | speed KPH | gust KPH | rain 1hr cm | rain 24hr cm | rain mn cm | humidity % | barometer mb |
| 20260906122502 | 23 | 227 | 0.0 | 0.0 | 0.00 | 0.18 | 0.03 | 88 | 1034.7 |
| 20260906122003 | 23 | 227 | 0.0 | 0.0 | 0.00 | 0.18 | 0.03 | 89 | 1034.5 |
| 20260906121503 | 23 | 227 | 0.0 | 0.0 | 0.00 | 0.18 | 0.03 | 88 | 1034.4 |
| 20260906121003 | 23 | 227 | 0.0 | 0.0 | 0.00 | 0.18 | 0.03 | 88 | 1034.4 |
| 20260906120502 | 23 | 227 | 0.0 | 0.0 | 0.00 | 0.18 | 0.03 | 88 | 1034.4 |
| 20260906120002 | 23 | 227 | 0.0 | 0.0 | 0.00 | 0.18 | 0.03 | 88 | 1034.4 |
| 20260906115502 | 23 | 227 | 0.0 | 0.0 | 0.00 | 0.18 | 0.03 | 88 | 1034.4 |
| 20260906115002 | 23 | 227 | 0.0 | 0.0 | 0.00 | 0.18 | 0.03 | 88 | 1034.3 |
| 20260906114503 | 23 | 227 | 0.0 | 0.0 | 0.00 | 0.18 | 0.03 | 87 | 1034.3 |
| 20260906114002 | 23 | 227 | 0.0 | 0.0 | 0.00 | 0.18 | 0.03 | 88 | 1034.3 |
| 20260906113503 | 23 | 227 | 0.0 | 0.0 | 0.00 | 0.18 | 0.03 | 87 | 1034.2 |
| 20260906113003 | 23 | 227 | 0.0 | 0.0 | 0.00 | 0.18 | 0.03 | 87 | 1034.2 |
| 20260906112503 | 23 | 227 | 0.0 | 0.0 | 0.00 | 0.18 | 0.03 | 87 | 1034.1 |
| 20260906112002 | 23 | 227 | 0.0 | 0.0 | 0.00 | 0.18 | 0.03 | 87 | 1034.1 |
| 20260906111503 | 23 | 227 | 0.0 | 0.0 | 0.00 | 0.18 | 0.03 | 87 | 1034.1 |
| 20260906111002 | 23 | 227 | 0.0 | 0.0 | 0.00 | 0.18 | 0.03 | 86 | 1034.1 |
| 20260906110503 | 23 | 227 | 0.0 | 1.6 | 0.00 | 0.18 | 0.03 | 85 | 1034.1 |
| 20260906110002 | 23 | 227 | 0.0 | 4.8 | 0.00 | 0.18 | 0.03 | 85 | 1034.1 |
| 20260906105503 | 23 | 270 | 3.2 | 4.8 | 0.00 | 0.18 | 0.03 | 85 | 1034.0 |
| 20260906105023 | 23 | 249 | 1.6 | 6.4 | 0.00 | 0.18 | 0.03 | 85 | 1033.9 |
| 20260906104545 | 23 | 97 | 0.0 | 8.0 | 0.00 | 0.18 | 0.03 | 85 | 1033.9 |
| 20260906104003 | 23 | 122 | 0.0 | 19.3 | 0.00 | 0.18 | 0.03 | 86 | 1033.8 |
| 20260906103003 | 22 | 63 | 1.6 | 12.9 | 0.00 | 0.18 | 0.03 | 89 | 1033.9 |
| 20260906102502 | 22 | 0 | 1.6 | 8.0 | 0.00 | 0.18 | 0.03 | 91 | 1033.9 |
| 20260906102003 | 22 | 60 | 1.6 | 12.9 | 0.00 | 0.18 | 0.03 | 93 | 1034.0 |
| 20260906101503 | 21 | 36 | 1.6 | 12.9 | 0.00 | 0.18 | 0.03 | 95 | 1033.9 |
| 20260906101002 | 21 | 85 | 0.0 | 9.7 | 0.00 | 0.18 | 0.03 | 95 | 1034.0 |
| 20260906100503 | 21 | 309 | 0.0 | 0.0 | 0.00 | 0.18 | 0.03 | 96 | 1034.0 |
| 20260906100002 | 21 | 309 | 0.0 | 1.6 | 0.00 | 0.18 | 0.03 | 96 | 1034.1 |
| 20260906095503 | 21 | 308 | 0.0 | 1.6 | 0.00 | 0.18 | 0.03 | 96 | 1034.0 |
| 20260906095002 | 21 | 61 | 0.0 | 0.0 | 0.00 | 0.18 | 0.03 | 96 | 1034.0 |
| 20260906094523 | 21 | 61 | 0.0 | 0.0 | 0.00 | 0.18 | 0.03 | 96 | 1034.1 |
| 20260906094003 | 21 | 61 | 0.0 | 0.0 | 0.00 | 0.18 | 0.03 | 96 | 1034.1 |
| 20260906093502 | 21 | 61 | 0.0 | 0.0 | 0.00 | 0.18 | 0.03 | 96 | 1034.0 |
| 20260906093004 | 20 | 61 | 0.0 | 0.0 | 0.00 | 0.18 | 0.03 | 96 | 1034.1 |
| 20260906092502 | 20 | 61 | 0.0 | 0.0 | 0.00 | 0.18 | 0.03 | 96 | 1034.1 |
| 20260906092003 | 20 | 61 | 0.0 | 0.0 | 0.00 | 0.18 | 0.03 | 96 | 1034.1 |
| 20260906091503 | 20 | 61 | 0.0 | 0.0 | 0.00 | 0.18 | 0.03 | 96 | 1034.1 |
| 20260906091024 | 20 | 61 | 0.0 | 1.6 | 0.00 | 0.18 | 0.03 | 96 | 1034.1 |
| 20260906090503 | 20 | 59 | 0.0 | 1.6 | 0.00 | 0.18 | 0.03 | 96 | 1034.2 |
| 20260906090024 | 20 | 265 | 0.0 | 0.0 | 0.03 | 0.18 | 0.03 | 96 | 1034.2 |
| 20260906085503 | 20 | 265 | 0.0 | 0.0 | 0.03 | 0.18 | 0.03 | 96 | 1034.1 |
| 20260906085003 | 20 | 265 | 0.0 | 0.0 | 0.03 | 0.18 | 0.03 | 96 | 1034.1 |
| 20260906084502 | 20 | 265 | 0.0 | 0.0 | 0.03 | 0.18 | 0.03 | 95 | 1034.1 |
| 20260906084003 | 20 | 265 | 0.0 | 0.0 | 0.03 | 0.18 | 0.03 | 95 | 1034.1 |
| 20260906083525 | 20 | 265 | 0.0 | 0.0 | 0.03 | 0.18 | 0.03 | 96 | 1034.1 |
| 20260906083023 | 20 | 265 | 0.0 | 0.0 | 0.03 | 0.18 | 0.03 | 96 | 1034.1 |
| 20260906082502 | 20 | 265 | 0.0 | 0.0 | 0.03 | 0.18 | 0.03 | 95 | 1034.1 |
| 20260906082002 | 20 | 265 | 0.0 | 0.0 | 0.00 | 0.15 | 0.00 | 95 | 1034.1 |
| 20260906081503 | 20 | 265 | 0.0 | 0.0 | 0.00 | 0.15 | 0.00 | 95 | 1034.0 |
| 20260906081002 | 20 | 265 | 0.0 | 0.0 | 0.00 | 0.15 | 0.00 | 95 | 1033.9 |
| 20260906080503 | 20 | 265 | 0.0 | 0.0 | 0.00 | 0.15 | 0.00 | 95 | 1033.8 |
| 20260906080003 | 20 | 265 | 0.0 | 0.0 | 0.00 | 0.15 | 0.00 | 95 | 1033.7 |
| 20260906075502 | 21 | 265 | 0.0 | 0.0 | 0.00 | 0.15 | 0.00 | 95 | 1033.7 |
| 20260906075003 | 21 | 265 | 0.0 | 0.0 | 0.00 | 0.15 | 0.00 | 95 | 1033.7 |
| 20260906074502 | 20 | 265 | 0.0 | 0.0 | 0.00 | 0.15 | 0.00 | 95 | 1033.7 |
| 20260906074003 | 20 | 265 | 0.0 | 0.0 | 0.00 | 0.15 | 0.00 | 95 | 1033.7 |
| 20260906073502 | 21 | 265 | 0.0 | 0.0 | 0.00 | 0.15 | 0.00 | 95 | 1033.7 |
| 20260906072502 | 21 | 265 | 0.0 | 0.0 | 0.00 | 0.15 | 0.00 | 95 | 1033.8 |
| 20260906072003 | 21 | 265 | 0.0 | 0.0 | 0.00 | 0.15 | 0.00 | 95 | 1033.8 |
| 20260906071502 | 21 | 265 | 0.0 | 0.0 | 0.00 | 0.15 | 0.00 | 95 | 1033.9 |
| 20260906071003 | 21 | 265 | 0.0 | 0.0 | 0.00 | 0.15 | 0.00 | 95 | 1033.8 |
| 20260906070502 | 21 | 265 | 0.0 | 0.0 | 0.00 | 0.15 | 0.00 | 95 | 1033.8 |
| 20260906070003 | 21 | 265 | 0.0 | 0.0 | 0.00 | 0.15 | 0.00 | 95 | 1033.8 |
| 20260906065524 | 21 | 265 | 0.0 | 0.0 | 0.00 | 0.15 | 0.00 | 95 | 1033.8 |
| 20260906065002 | 21 | 265 | 0.0 | 0.0 | 0.00 | 0.15 | 0.00 | 95 | 1033.9 |
| 20260906064503 | 21 | 265 | 0.0 | 0.0 | 0.00 | 0.15 | 0.00 | 95 | 1033.9 |
| 20260906064002 | 21 | 265 | 0.0 | 0.0 | 0.00 | 0.15 | 0.00 | 95 | 1034.0 |
| 20260906063524 | 21 | 265 | 0.0 | 0.0 | 0.00 | 0.15 | 0.00 | 95 | 1034.2 |
| 20260906063003 | 21 | 265 | 0.0 | 0.0 | 0.00 | 0.15 | 0.00 | 95 | 1034.2 |
| 20260906062523 | 21 | 265 | 0.0 | 0.0 | 0.00 | 0.15 | 0.00 | 95 | 1034.0 |
| 20260906062003 | 21 | 265 | 0.0 | 0.0 | 0.00 | 0.15 | 0.00 | 95 | 1034.0 |
| 20260906061545 | 21 | 265 | 0.0 | 0.0 | 0.00 | 0.15 | 0.00 | 95 | 1034.0 |
| 20260906061003 | 21 | 265 | 0.0 | 0.0 | 0.00 | 0.15 | 0.00 | 95 | 1034.0 |
| 20260906060503 | 21 | 265 | 0.0 | 0.0 | 0.00 | 0.15 | 0.00 | 95 | 1034.1 |
| 20260906060003 | 21 | 265 | 0.0 | 0.0 | 0.00 | 0.15 | 0.00 | 95 | 1034.1 |
| 20260906055503 | 21 | 265 | 0.0 | 0.0 | 0.00 | 0.15 | 0.00 | 95 | 1034.2 |
| 20260906055023 | 21 | 265 | 0.0 | 0.0 | 0.00 | 0.15 | 0.00 | 95 | 1034.2 |
| 20260906054503 | 21 | 265 | 0.0 | 0.0 | 0.00 | 0.15 | 0.00 | 95 | 1034.3 |
| 20260906054002 | 21 | 265 | 0.0 | 0.0 | 0.00 | 0.15 | 0.00 | 95 | 1034.4 |
| 20260906053524 | 21 | 265 | 0.0 | 0.0 | 0.00 | 0.15 | 0.00 | 94 | 1034.5 |
| 20260906053024 | 21 | 265 | 0.0 | 0.0 | 0.00 | 0.15 | 0.00 | 94 | 1034.5 |
| 20260906052524 | 21 | 265 | 0.0 | 0.0 | 0.00 | 0.15 | 0.00 | 94 | 1034.7 |
| 20260906052003 | 21 | 265 | 0.0 | 0.0 | 0.00 | 0.15 | 0.00 | 95 | 1034.5 |
| 20260906051503 | 21 | 265 | 0.0 | 3.2 | 0.00 | 0.15 | 0.00 | 95 | 1034.5 |
| 20260906051003 | 21 | 264 | 0.0 | 3.2 | 0.00 | 0.15 | 0.00 | 94 | 1034.5 |
| 20260906050503 | 21 | 56 | 0.0 | 0.0 | 0.00 | 0.15 | 0.00 | 94 | 1034.5 |
| 20260906050002 | 21 | 56 | 0.0 | 0.0 | 0.15 | 0.15 | 0.00 | 94 | 1034.4 |
| 20260906045503 | 21 | 56 | 0.0 | 0.0 | 0.15 | 0.30 | 0.15 | 94 | 1034.5 |
| 20260906044503 | 21 | 56 | 0.0 | 0.0 | 0.15 | 0.30 | 0.15 | 94 | 1034.6 |
| 20260906044045 | 21 | 56 | 0.0 | 0.0 | 0.15 | 0.30 | 0.15 | 94 | 1034.5 |
| 20260906043502 | 22 | 56 | 0.0 | 0.0 | 0.15 | 0.30 | 0.15 | 94 | 1034.6 |
| 20260906043003 | 22 | 56 | 0.0 | 0.0 | 0.15 | 0.30 | 0.15 | 94 | 1034.6 |
| 20260906042524 | 22 | 56 | 0.0 | 0.0 | 0.15 | 0.30 | 0.15 | 94 | 1034.6 |
| 20260906042003 | 22 | 56 | 0.0 | 0.0 | 0.15 | 0.30 | 0.15 | 94 | 1034.7 |
| 20260906041503 | 22 | 56 | 0.0 | 0.0 | 0.15 | 0.30 | 0.15 | 94 | 1034.6 |
| 20260906041002 | 22 | 56 | 0.0 | 0.0 | 0.15 | 0.30 | 0.15 | 93 | 1034.5 |
| 20260906040504 | 22 | 56 | 0.0 | 3.2 | 0.15 | 0.30 | 0.15 | 93 | 1034.4 |
| 20260906040002 | 22 | 56 | 0.0 | 3.2 | 0.00 | 0.15 | 0.15 | 93 | 1034.4 |
| 20260906035503 | 22 | 109 | 0.0 | 0.0 | 0.00 | 0.15 | 0.15 | 94 | 1034.6 |
| 20260906035002 | 22 | 109 | 0.0 | 0.0 | 0.00 | 0.15 | 0.15 | 94 | 1034.6 |
| 20260906034503 | 22 | 109 | 0.0 | 0.0 | 0.00 | 0.15 | 0.15 | 94 | 1034.6 |
| 20260906034003 | 22 | 109 | 0.0 | 0.0 | 0.00 | 0.15 | 0.15 | 94 | 1034.7 |
| 20260906033502 | 22 | 109 | 0.0 | 0.0 | 0.00 | 0.15 | 0.15 | 94 | 1034.7 |
| 20260906033003 | 22 | 109 | 0.0 | 4.8 | 0.00 | 0.15 | 0.15 | 94 | 1034.6 |
| 20260906032523 | 22 | 92 | 1.6 | 4.8 | 0.00 | 0.15 | 0.15 | 94 | 1034.7 |
| 20260906032003 | 22 | 119 | 0.0 | 0.0 | 0.00 | 0.15 | 0.15 | 94 | 1034.7 |
| 20260906031524 | 22 | 119 | 0.0 | 3.2 | 0.00 | 0.15 | 0.15 | 94 | 1034.7 |
| 20260906031002 | 22 | 119 | 0.0 | 3.2 | 0.00 | 0.15 | 0.15 | 94 | 1034.8 |
| 20260906030503 | 22 | 61 | 0.0 | 4.8 | 0.00 | 0.15 | 0.15 | 94 | 1034.7 |
| 20260906030002 | 22 | 61 | 0.0 | 4.8 | 0.00 | 0.15 | 0.15 | 93 | 1034.6 |
| 20260906025503 | 22 | 37 | 0.0 | 0.0 | 0.00 | 0.15 | 0.15 | 93 | 1034.6 |
| 20260906025003 | 22 | 37 | 0.0 | 0.0 | 0.00 | 0.15 | 0.15 | 93 | 1034.8 |
| 20260906024503 | 22 | 37 | 0.0 | 0.0 | 0.00 | 0.15 | 0.15 | 93 | 1034.7 |
| 20260906024003 | 23 | 37 | 0.0 | 0.0 | 0.00 | 0.15 | 0.15 | 93 | 1034.8 |
| 20260906023502 | 23 | 37 | 0.0 | 0.0 | 0.00 | 0.15 | 0.15 | 93 | 1034.7 |
| 20260906023003 | 23 | 37 | 0.0 | 0.0 | 0.00 | 0.15 | 0.15 | 93 | 1034.8 |
| 20260906022502 | 23 | 37 | 0.0 | 0.0 | 0.00 | 0.15 | 0.15 | 93 | 1034.7 |
| 20260906022003 | 23 | 37 | 0.0 | 4.8 | 0.00 | 0.15 | 0.15 | 93 | 1034.6 |
| 20260906021502 | 23 | 68 | 1.6 | 4.8 | 0.00 | 0.15 | 0.15 | 93 | 1034.6 |
| 20260906021003 | 23 | 46 | 0.0 | 3.2 | 0.00 | 0.15 | 0.15 | 93 | 1034.8 |
| 20260906020503 | 23 | 46 | 0.0 | 3.2 | 0.00 | 0.15 | 0.15 | 94 | 1034.7 |
| 20260906020003 | 23 | 341 | 0.0 | 3.2 | 0.00 | 0.15 | 0.15 | 94 | 1034.9 |
| 20260906015503 | 23 | 341 | 0.0 | 4.8 | 0.00 | 0.15 | 0.15 | 94 | 1034.9 |
| 20260906015003 | 23 | 212 | 1.6 | 4.8 | 0.00 | 0.15 | 0.15 | 93 | 1035.0 |
| 20260906014503 | 23 | 33 | 1.6 | 3.2 | 0.00 | 0.15 | 0.15 | 93 | 1034.8 |
| 20260906014002 | 23 | 331 | 0.0 | 0.0 | 0.00 | 0.15 | 0.15 | 93 | 1034.7 |
| 20260906013503 | 23 | 331 | 0.0 | 0.0 | 0.00 | 0.15 | 0.15 | 93 | 1034.6 |
| 20260906013002 | 23 | 331 | 0.0 | 0.0 | 0.00 | 0.15 | 0.15 | 93 | 1034.4 |
| 20260906012503 | 23 | 331 | 0.0 | 0.0 | 0.00 | 0.15 | 0.15 | 93 | 1034.1 |
| 20260906012003 | 23 | 331 | 0.0 | 0.0 | 0.00 | 0.15 | 0.15 | 92 | 1033.9 |
| 20260906011504 | 23 | 331 | 0.0 | 0.0 | 0.00 | 0.15 | 0.15 | 92 | 1033.8 |
| 20260906011003 | 23 | 331 | 0.0 | 0.0 | 0.00 | 0.15 | 0.15 | 92 | 1033.7 |
| 20260906010523 | 23 | 331 | 0.0 | 0.0 | 0.00 | 0.15 | 0.15 | 92 | 1033.4 |
| 20260906010003 | 23 | 331 | 0.0 | 0.0 | 0.00 | 0.15 | 0.15 | 92 | 1033.1 |
| 20260906005503 | 23 | 331 | 0.0 | 0.0 | 0.00 | 0.15 | 0.15 | 92 | 1033.1 |
| 20260906005003 | 23 | 331 | 0.0 | 0.0 | 0.00 | 0.15 | 0.15 | 92 | 1033.1 |
| 20260906004524 | 23 | 331 | 0.0 | 0.0 | 0.00 | 0.15 | 0.15 | 91 | 1033.0 |
| 20260906004002 | 23 | 331 | 0.0 | 0.0 | 0.00 | 0.15 | 0.15 | 91 | 1033.0 |
| 20260906003503 | 23 | 331 | 0.0 | 0.0 | 0.00 | 0.15 | 0.15 | 91 | 1032.9 |
| 20260906003003 | 25 | 331 | 0.0 | 0.0 | 0.00 | 0.15 | 0.15 | 90 | 1032.8 |
| 20260906002502 | 26 | 331 | 0.0 | 0.0 | 0.00 | 0.15 | 0.15 | 90 | 1032.8 |
| 20260906002003 | 26 | 331 | 0.0 | 0.0 | 0.00 | 0.15 | 0.15 | 91 | 1032.7 |
| 20260906001502 | 23 | 331 | 0.0 | 0.0 | 0.00 | 0.15 | 0.15 | 91 | 1032.6 |
| 20260906001003 | 24 | 331 | 0.0 | 0.0 | 0.00 | 0.15 | 0.15 | 91 | 1032.5 |
| 20260906000502 | 23 | 331 | 0.0 | 0.0 | 0.00 | 0.15 | 0.15 | 90 | 1032.4 |
| 20260906000003 | 24 | 331 | 0.0 | 0.0 | 0.00 | 0.15 | 0.15 | 90 | 1032.4 |
| 20260905235503 | 24 | 331 | 0.0 | 0.0 | 0.00 | 0.15 | 0.15 | 91 | 1032.4 |
| 20260905234525 | 24 | 331 | 0.0 | 1.6 | 0.00 | 0.15 | 0.15 | 90 | 1032.7 |
| 20260905234003 | 24 | 331 | 0.0 | 1.6 | 0.00 | 0.15 | 0.15 | 91 | 1032.7 |
| 20260905233502 | 24 | 296 | 0.0 | 0.0 | 0.00 | 0.15 | 0.15 | 91 | 1032.9 |
| 20260905233003 | 24 | 296 | 0.0 | 0.0 | 0.00 | 0.15 | 0.15 | 90 | 1033.1 |
| 20260905232502 | 24 | 296 | 0.0 | 0.0 | 0.00 | 0.15 | 0.15 | 90 | 1032.9 |
| 20260905232003 | 24 | 296 | 0.0 | 0.0 | 0.00 | 0.15 | 0.15 | 91 | 1033.0 |
| 20260905231503 | 24 | 296 | 0.0 | 0.0 | 0.00 | 0.15 | 0.15 | 90 | 1033.2 |
| 20260905231002 | 24 | 296 | 0.0 | 0.0 | 0.00 | 0.15 | 0.15 | 90 | 1033.2 |
| 20260905230525 | 24 | 296 | 0.0 | 0.0 | 0.00 | 0.15 | 0.15 | 90 | 1033.4 |
| 20260905230002 | 24 | 296 | 0.0 | 0.0 | 0.03 | 0.15 | 0.15 | 89 | 1033.4 |
| 20260905225503 | 24 | 296 | 0.0 | 0.0 | 0.03 | 0.15 | 0.15 | 89 | 1033.1 |
| 20260905225002 | 24 | 296 | 0.0 | 1.6 | 0.03 | 0.15 | 0.15 | 89 | 1033.0 |
| 20260905224502 | 24 | 296 | 0.0 | 3.2 | 0.03 | 0.15 | 0.15 | 88 | 1032.9 |
| 20260905224002 | 24 | 347 | 1.6 | 4.8 | 0.03 | 0.15 | 0.15 | 89 | 1033.0 |
| 20260905223502 | 24 | 43 | 0.0 | 4.8 | 0.03 | 0.15 | 0.15 | 89 | 1033.2 |
| 20260905223003 | 24 | 63 | 1.6 | 4.8 | 0.03 | 0.15 | 0.15 | 90 | 1033.4 |
| 20260905222502 | 24 | 330 | 1.6 | 3.2 | 0.03 | 0.15 | 0.15 | 89 | 1033.3 |
| 20260905222003 | 24 | 277 | 1.6 | 3.2 | 0.03 | 0.15 | 0.15 | 87 | 1032.9 |
| 20260905221523 | 24 | 336 | 0.0 | 0.0 | 0.03 | 0.15 | 0.15 | 86 | 1032.5 |
| 20260905221002 | 24 | 336 | 0.0 | 4.8 | 0.03 | 0.15 | 0.15 | 85 | 1032.3 |
| 20260905220502 | 25 | 314 | 0.0 | 9.7 | 0.00 | 0.15 | 0.13 | 82 | 1032.2 |
| 20260905220003 | 25 | 34 | 3.2 | 11.3 | 0.13 | 0.13 | 0.13 | 81 | 1032.4 |
| 20260905215502 | 25 | 72 | 3.2 | 19.3 | 0.13 | 0.13 | 0.13 | 77 | 1032.4 |
| 20260905214502 | 27 | 27 | 6.4 | 24.1 | 0.10 | 0.10 | 0.10 | 73 | 1033.0 |
| 20260905214003 | 28 | 57 | 6.4 | 24.1 | 0.08 | 0.08 | 0.08 | 65 | 1033.7 |
| 20260905213502 | 31 | 62 | 9.7 | 24.1 | 0.03 | 0.03 | 0.03 | 59 | 1033.6 |
| 20260905213003 | 32 | 62 | 8.0 | 24.1 | 0.00 | 0.00 | 0.00 | 53 | 1032.8 |
| 20260905212502 | 33 | 55 | 1.6 | 20.9 | 0.00 | 0.00 | 0.00 | 46 | 1032.7 |
| 20260905212003 | 33 | 13 | 1.6 | 12.9 | 0.00 | 0.00 | 0.00 | 47 | 1032.4 |
| 20260905211503 | 33 | 9 | 0.0 | 1.6 | 0.00 | 0.00 | 0.00 | 47 | 1032.3 |
| 20260905211002 | 33 | 53 | 0.0 | 6.4 | 0.00 | 0.00 | 0.00 | 47 | 1032.2 |
| 20260905210503 | 33 | 78 | 1.6 | 6.4 | 0.00 | 0.00 | 0.00 | 46 | 1032.3 |
| 20260905210002 | 33 | 59 | 1.6 | 4.8 | 0.00 | 0.00 | 0.00 | 45 | 1032.3 |
| 20260905205546 | 34 | 58 | 1.6 | 4.8 | 0.00 | 0.00 | 0.00 | 45 | 1032.2 |
| 20260905205002 | 34 | 21 | 0.0 | 6.4 | 0.00 | 0.00 | 0.00 | 43 | 1032.1 |
| 20260905204503 | 35 | 66 | 1.6 | 9.7 | 0.00 | 0.00 | 0.00 | 42 | 1032.2 |
| 20260905204002 | 35 | 66 | 1.6 | 9.7 | 0.00 | 0.00 | 0.00 | 40 | 1032.2 |
| 20260905203502 | 36 | 71 | 1.6 | 6.4 | 0.00 | 0.00 | 0.00 | 38 | 1032.2 |
| 20260905203003 | 36 | 130 | 0.0 | 6.4 | 0.00 | 0.00 | 0.00 | 38 | 1032.3 |
| 20260905202502 | 36 | 106 | 0.0 | 6.4 | 0.00 | 0.00 | 0.00 | 38 | 1032.5 |
| 20260905202003 | 35 | 295 | 0.0 | 9.7 | 0.00 | 0.00 | 0.00 | 42 | 1032.4 |
| 20260905201524 | 35 | 78 | 0.0 | 9.7 | 0.00 | 0.00 | 0.00 | 42 | 1032.5 |
| 20260905201002 | 35 | 61 | 0.0 | 8.0 | 0.00 | 0.00 | 0.00 | 42 | 1032.4 |
| 20260905200503 | 35 | 54 | 1.6 | 8.0 | 0.00 | 0.00 | 0.00 | 42 | 1032.5 |
| 20260905200003 | 35 | 59 | 0.0 | 6.4 | 0.00 | 0.00 | 0.00 | 42 | 1032.6 |
| 20260905195524 | 35 | 86 | 1.6 | 4.8 | 0.00 | 0.00 | 0.00 | 44 | 1032.6 |
| 20260905195002 | 35 | 144 | 0.0 | 4.8 | 0.00 | 0.00 | 0.00 | 42 | 1032.7 |
| 20260905194502 | 35 | 102 | 0.0 | 4.8 | 0.00 | 0.00 | 0.00 | 43 | 1032.7 |
| 20260905194002 | 35 | 72 | 1.6 | 6.4 | 0.00 | 0.00 | 0.00 | 40 | 1032.8 |
| 20260905193502 | 36 | 95 | 1.6 | 6.4 | 0.00 | 0.00 | 0.00 | 38 | 1032.9 |
| 20260905193002 | 36 | 37 | 0.0 | 11.3 | 0.00 | 0.00 | 0.00 | 37 | 1032.9 |
| 20260905192523 | 36 | 60 | 3.2 | 11.3 | 0.00 | 0.00 | 0.00 | 39 | 1033.1 |
| 20260905192024 | 35 | 84 | 0.0 | 3.2 | 0.00 | 0.00 | 0.00 | 40 | 1033.1 |
| 20260905191524 | 35 | 122 | 1.6 | 6.4 | 0.00 | 0.00 | 0.00 | 41 | 1033.3 |
| 20260905191045 | 35 | 50 | 0.0 | 6.4 | 0.00 | 0.00 | 0.00 | 43 | 1033.3 |
| 20260905190503 | 35 | 57 | 1.6 | 3.2 | 0.00 | 0.00 | 0.00 | 43 | 1033.4 |
| 20260905190002 | 35 | 140 | 0.0 | 6.4 | 0.00 | 0.00 | 0.00 | 44 | 1033.4 |
| 20260905185503 | 35 | 326 | 1.6 | 6.4 | 0.00 | 0.00 | 0.00 | 43 | 1033.4 |
| 20260905185003 | 34 | 321 | 3.2 | 6.4 | 0.00 | 0.00 | 0.00 | 45 | 1033.4 |
| 20260905184502 | 35 | 297 | 0.0 | 8.0 | 0.00 | 0.00 | 0.00 | 44 | 1033.7 |
| 20260905183503 | 35 | 144 | 3.2 | 8.0 | 0.00 | 0.00 | 0.00 | 42 | 1033.7 |
| 20260905183004 | 35 | 99 | 3.2 | 11.3 | 0.00 | 0.00 | 0.00 | 44 | 1033.8 |
| 20260905182503 | 35 | 48 | 3.2 | 11.3 | 0.00 | 0.00 | 0.00 | 46 | 1033.9 |
| 20260905182003 | 35 | 194 | 1.6 | 8.0 | 0.00 | 0.00 | 0.00 | 46 | 1033.9 |
| 20260905181502 | 35 | 297 | 1.6 | 8.0 | 0.00 | 0.00 | 0.00 | 44 | 1034.0 |
| 20260905181003 | 35 | 117 | 3.2 | 8.0 | 0.00 | 0.00 | 0.00 | 43 | 1034.2 |
| 20260905180502 | 35 | 83 | 0.0 | 8.0 | 0.00 | 0.00 | 0.00 | 48 | 1034.3 |
| 20260905180003 | 34 | 120 | 1.6 | 12.9 | 0.00 | 0.00 | 0.00 | 48 | 1034.4 |
| 20260905175502 | 34 | 40 | 3.2 | 12.9 | 0.00 | 0.00 | 0.00 | 48 | 1034.3 |
| 20260905175003 | 34 | 56 | 1.6 | 9.7 | 0.00 | 0.00 | 0.00 | 49 | 1034.4 |
| 20260905174502 | 34 | 332 | 3.2 | 9.7 | 0.00 | 0.00 | 0.00 | 50 | 1034.5 |
| 20260905174023 | 34 | 357 | 3.2 | 8.0 | 0.00 | 0.00 | 0.00 | 50 | 1034.6 |
| 20260905173503 | 34 | 317 | 1.6 | 8.0 | 0.00 | 0.00 | 0.00 | 49 | 1034.7 |
| 20260905173002 | 33 | 46 | 1.6 | 9.7 | 0.00 | 0.00 | 0.00 | 51 | 1034.8 |
| 20260905172503 | 33 | 14 | 1.6 | 9.7 | 0.00 | 0.00 | 0.00 | 52 | 1034.8 |
| 20260905172002 | 33 | 47 | 0.0 | 6.4 | 0.00 | 0.00 | 0.00 | 51 | 1034.9 |
| 20260905171503 | 33 | 178 | 1.6 | 6.4 | 0.00 | 0.00 | 0.00 | 51 | 1034.9 |
| 20260905171003 | 33 | 123 | 1.6 | 6.4 | 0.00 | 0.00 | 0.00 | 50 | 1035.0 |
| 20260905170502 | 33 | 90 | 1.6 | 9.7 | 0.00 | 0.00 | 0.00 | 50 | 1035.0 |
| 20260905170003 | 33 | 104 | 3.2 | 9.7 | 0.00 | 0.00 | 0.00 | 51 | 1035.0 |
| 20260905165523 | 34 | 73 | 0.0 | 6.4 | 0.00 | 0.00 | 0.00 | 50 | 1035.1 |
| 20260905165003 | 33 | 58 | 1.6 | 9.7 | 0.00 | 0.00 | 0.00 | 51 | 1035.1 |
| 20260905164502 | 33 | 37 | 1.6 | 14.5 | 0.00 | 0.00 | 0.00 | 51 | 1035.2 |
| 20260905164003 | 33 | 53 | 8.0 | 14.5 | 0.00 | 0.00 | 0.00 | 51 | 1035.3 |
| 20260905163502 | 33 | 313 | 4.8 | 11.3 | 0.00 | 0.00 | 0.00 | 49 | 1035.2 |
| 20260905163003 | 33 | 34 | 0.0 | 8.0 | 0.00 | 0.00 | 0.00 | 50 | 1035.4 |
| 20260905162502 | 33 | 82 | 3.2 | 9.7 | 0.00 | 0.00 | 0.00 | 51 | 1035.6 |
| 20260905162004 | 33 | 121 | 3.2 | 12.9 | 0.00 | 0.00 | 0.00 | 49 | 1035.7 |
| 20260905161502 | 33 | 88 | 4.8 | 12.9 | 0.00 | 0.00 | 0.00 | 51 | 1035.8 |
| 20260905161003 | 33 | 50 | 3.2 | 9.7 | 0.00 | 0.00 | 0.00 | 52 | 1035.9 |
| 20260905160502 | 33 | 106 | 1.6 | 9.7 | 0.00 | 0.00 | 0.00 | 53 | 1035.9 |
| 20260905160003 | 32 | 292 | 0.0 | 9.7 | 0.00 | 0.00 | 0.00 | 53 | 1035.9 |
| 20260905155503 | 32 | 5 | 0.0 | 12.9 | 0.00 | 0.00 | 0.00 | 53 | 1036.0 |
| 20260905155045 | 32 | 77 | 4.8 | 12.9 | 0.00 | 0.00 | 0.00 | 54 | 1036.1 |
| 20260905154503 | 32 | 81 | 3.2 | 11.3 | 0.00 | 0.00 | 0.00 | 55 | 1036.1 |
| 20260905154003 | 32 | 124 | 1.6 | 12.9 | 0.00 | 0.00 | 0.00 | 55 | 1036.2 |
| 20260905153502 | 32 | 74 | 4.8 | 12.9 | 0.00 | 0.00 | 0.00 | 55 | 1036.2 |
| 20260905153003 | 32 | 102 | 0.0 | 3.2 | 0.00 | 0.00 | 0.00 | 57 | 1036.2 |
| 20260905152502 | 32 | 306 | 1.6 | 6.4 | 0.00 | 0.00 | 0.00 | 58 | 1036.3 |
| 20260905152002 | 32 | 264 | 0.0 | 6.4 | 0.00 | 0.00 | 0.00 | 56 | 1036.3 |
| 20260905151545 | 32 | 150 | 0.0 | 4.8 | 0.00 | 0.00 | 0.00 | 57 | 1036.3 |
| 20260905151024 | 32 | 67 | 0.0 | 4.8 | 0.00 | 0.00 | 0.00 | 57 | 1036.3 |
| 20260905150502 | 32 | 113 | 0.0 | 1.6 | 0.00 | 0.00 | 0.00 | 62 | 1036.4 |
| 20260905150003 | 32 | 119 | 0.0 | 4.8 | 0.00 | 0.00 | 0.00 | 63 | 1036.4 |
| 20260905145502 | 31 | 52 | 1.6 | 4.8 | 0.00 | 0.00 | 0.00 | 60 | 1036.4 |
| 20260905145003 | 31 | 76 | 0.0 | 3.2 | 0.00 | 0.00 | 0.00 | 62 | 1036.4 |
| 20260905144502 | 31 | 75 | 0.0 | 4.8 | 0.00 | 0.00 | 0.00 | 60 | 1036.4 |
| 20260905144003 | 31 | 114 | 3.2 | 4.8 | 0.00 | 0.00 | 0.00 | 60 | 1036.4 |
| 20260905143503 | 31 | 102 | 0.0 | 3.2 | 0.00 | 0.00 | 0.00 | 63 | 1036.5 |
| 20260905143023 | 30 | 102 | 0.0 | 3.2 | 0.00 | 0.00 | 0.00 | 66 | 1036.5 |
| 20260905142503 | 30 | 191 | 0.0 | 3.2 | 0.00 | 0.00 | 0.00 | 66 | 1036.6 |
| 20260905142002 | 30 | 278 | 0.0 | 4.8 | 0.00 | 0.00 | 0.00 | 65 | 1036.6 |
| 20260905141503 | 30 | 128 | 0.0 | 4.8 | 0.00 | 0.00 | 0.00 | 67 | 1036.6 |
| 20260905141003 | 30 | 210 | 0.0 | 1.6 | 0.00 | 0.00 | 0.00 | 69 | 1036.6 |
| 20260905140523 | 29 | 292 | 0.0 | 3.2 | 0.00 | 0.00 | 0.00 | 69 | 1036.6 |
| 20260905140003 | 29 | 265 | 1.6 | 3.2 | 0.00 | 0.00 | 0.00 | 69 | 1036.7 |
| 20260905135503 | 29 | 170 | 0.0 | 0.0 | 0.00 | 0.00 | 0.00 | 70 | 1036.8 |
| 20260905135003 | 29 | 170 | 0.0 | 0.0 | 0.00 | 0.00 | 0.00 | 70 | 1036.8 |
| 20260905134524 | 28 | 170 | 0.0 | 0.0 | 0.00 | 0.00 | 0.00 | 71 | 1036.7 |
| 20260905134002 | 28 | 170 | 0.0 | 0.0 | 0.00 | 0.00 | 0.00 | 70 | 1036.8 |
| 20260905133503 | 28 | 170 | 0.0 | 0.0 | 0.00 | 0.00 | 0.00 | 73 | 1036.8 |
| 20260905133024 | 28 | 170 | 0.0 | 0.0 | 0.00 | 0.00 | 0.00 | 73 | 1036.9 |
| 20260905132503 | 28 | 170 | 0.0 | 0.0 | 0.00 | 0.00 | 0.00 | 74 | 1036.9 |
| 20260905132003 | 27 | 170 | 0.0 | 0.0 | 0.00 | 0.00 | 0.00 | 74 | 1036.9 |
| 20260905131502 | 27 | 170 | 0.0 | 0.0 | 0.00 | 0.00 | 0.00 | 76 | 1036.9 |
| 20260905131003 | 26 | 170 | 0.0 | 0.0 | 0.00 | 0.00 | 0.00 | 78 | 1037.0 |
| 20260905130502 | 26 | 170 | 0.0 | 0.0 | 0.00 | 0.00 | 0.00 | 81 | 1037.0 |
| 20260905130003 | 25 | 170 | 0.0 | 0.0 | 0.00 | 0.00 | 0.00 | 83 | 1037.1 |
| 20260905125503 | 24 | 170 | 0.0 | 0.0 | 0.00 | 0.00 | 0.00 | 86 | 1037.0 |
| 20260905125003 | 23 | 170 | 0.0 | 0.0 | 0.00 | 0.00 | 0.00 | 88 | 1037.0 |
| 20260905124503 | 23 | 170 | 0.0 | 0.0 | 0.00 | 0.00 | 0.00 | 91 | 1037.0 |
| 20260905124024 | 22 | 170 | 0.0 | 0.0 | 0.00 | 0.00 | 0.00 | 93 | 1037.1 |
| 20260905123503 | 22 | 170 | 0.0 | 0.0 | 0.00 | 0.00 | 0.00 | 93 | 1037.0 |
| 20260905123003 | 22 | 170 | 0.0 | 0.0 | 0.00 | 0.00 | 0.00 | 93 | 1037.0 |